Ellensburg, WA
on Sunday, February 3, 2013

Sunday
Previous Day Next Day
Daily Summary
 ActualAverage (KYKM)Record (KYKM)
Temperature
Mean Temperature °F 34°F  
Max Temperature 46°F 43°F 61°F (1962)
Min Temperature 27°F 25°F -23°F (1950)
Degree Days
Heating Degree Days 28 31  
Month to date heating degree days 93  
Since 1 July heating degree days 3811  
Cooling Degree Days 0 0  
Month to date cooling degree days 0  
Year to date cooling degree days 0  
Moisture
Dew Point 29°F   
Average Humidity 73    
Maximum Humidity 89    
Minimum Humidity 56    
Precipitation
Precipitation 0.00 in 0.02 in 0.37 in (1998)
Month to date precipitation 0.08  
Year to date precipitation 1.22  
Snow
Snow 0.00 in 0.10 in 1.50 in (1950)
Month to date snowfall 0.3  
Year to date snowfall 5.6  
Since 1 July snowfall 18.6  
Snow Depth in   
Wind
Wind Speed 6 mph   
Max Wind Speed 26 mph   
Max Gust Speed 32 mph   
Visibility 8 miles   
Events     

Key: T is trace of precipitation, MM is missing value
Source: NWS Daily Summary
Time(PST)TemperatureDew PointHumidity Pressure Visibility Wind DirectionWind SpeedGust SpeedPrecipitationEvents Conditions
12:53 AM 28.0°F 24.1°F 85% 30.25 in 6.0 miles Calm Calm - N/A   Clear
1:53 AM 27.0°F 23.0°F 85% 30.26 in 6.0 miles Calm Calm - N/A   Clear
2:53 AM 28.0°F 23.0°F 81% 30.24 in 6.0 miles East 3.5 mph - N/A   Haze
3:53 AM 28.9°F 25.0°F 85% 30.22 in 7.0 miles NE 3.5 mph - N/A   Clear
4:16 AM 28.4°F 24.8°F 86% 30.18 in 6.0 miles Calm Calm - N/A   Partly Cloudy
4:53 AM 28.9°F 25.0°F 85% 30.22 in 6.0 miles Calm Calm - N/A   Clear
5:53 AM 30.9°F 26.1°F 82% 30.23 in 7.0 miles Calm Calm - N/A   Clear
6:53 AM 30.9°F 26.1°F 82% 30.23 in 8.0 miles Calm Calm - N/A   Clear
7:53 AM 30.0°F 26.1°F 85% 30.25 in 6.0 miles Calm Calm - N/A   Clear
8:38 AM 30.2°F 26.6°F 86% 30.19 in 3.0 miles SE 6.9 mph - N/A   Partly Cloudy
8:46 AM 30.2°F 26.6°F 86% 30.19 in 2.5 miles SE 5.8 mph - N/A   Clear
8:53 AM 30.9°F 28.0°F 89% 30.24 in 3.0 miles SSW 4.6 mph - N/A   Clear
9:53 AM 35.1°F 30.0°F 82% 30.23 in 7.0 miles SE 6.9 mph - N/A   Clear
10:53 AM 45.0°F 35.1°F 68% 30.21 in 10.0 miles NW 13.8 mph - N/A   Clear
11:53 AM 46.9°F 33.1°F 59% 30.19 in 10.0 miles NW 19.6 mph 27.6 mph N/A   Clear
12:53 PM 46.9°F 32.0°F 56% 30.17 in 10.0 miles NW 16.1 mph 21.9 mph N/A   Clear
1:53 PM 46.9°F 32.0°F 56% 30.16 in 10.0 miles NW 18.4 mph 24.2 mph N/A   Clear
2:53 PM 46.9°F 32.0°F 56% 30.14 in 10.0 miles NW 20.7 mph 27.6 mph N/A   Clear
3:53 PM 46.0°F 32.0°F 58% 30.16 in 10.0 miles NW 20.7 mph - N/A   Clear
4:53 PM 45.0°F 30.9°F 58% 30.15 in 10.0 miles NW 20.7 mph - N/A   Partly Cloudy
5:53 PM 44.1°F 30.9°F 60% 30.15 in 10.0 miles NW 24.2 mph 32.2 mph N/A   Mostly Cloudy
6:53 PM 44.1°F 30.9°F 60% 30.15 in 10.0 miles WNW 26.5 mph 32.2 mph N/A   Overcast
7:53 PM 44.1°F 30.9°F 60% 30.15 in 10.0 miles WNW 18.4 mph 27.6 mph N/A   Overcast
8:53 PM 42.1°F 30.9°F 65% 30.15 in 10.0 miles WNW 10.4 mph - N/A   Partly Cloudy
9:53 PM 39.9°F 30.9°F 70% 30.15 in 10.0 miles NW 8.1 mph - N/A   Clear
10:53 PM 39.9°F 32.0°F 73% 30.13 in 10.0 miles NW 13.8 mph - N/A   Partly Cloudy
11:53 PM 41.0°F 32.0°F 70% 30.13 in 10.0 miles WNW 6.9 mph - N/A   Scattered Clouds
Moon Phase
Feb. 03 Feb. 10 Feb. 17 Feb. 25 Mar. 04
Sunrise:07:24 AM (PST) Moon Rise:12:59 AM (PST)2/3
Sunset:05:08 PM (PST) Moon Set:10:46 AM (PST)2/3

Copyright © 2014 The Weather Underground, Inc.